Midland, VA

1:20 AM EST on February 26, 2017 (GMT -0500)
Warrenton

Weather History for KHWY - November, 2013

Change the Weather History Date:

Friday, November 8, 2013

  Actual Average (KHEF) Record (KHEF)
Temperature  
Mean Temperature 40 °F -  
Max Temperature 55 °F 56 °F 73 °F (1996)
Min Temperature 25 °F 33 °F 23 °F (2007)
Degree Days  
Heating Degree Days 25    
Moisture  
Dew Point 30 °F    
Average Humidity 71    
Maximum Humidity 100    
Minimum Humidity 42    
Precipitation  
Precipitation 0.00 in - - ()
Sea Level Pressure  
Sea Level Pressure 30.20 in    
Wind  
Wind Speed 5 mph (WNW)    
Max Wind Speed 20 mph    
Max Gust Speed 24 mph    
Visibility 10 miles    
Events      
Averages and records for this station are not official NWS values.
T = Trace of Precipitation, MM = Missing Value Source: NWS Daily Summary

Daily Weather History Graph

Daily Weather History Graph

Search for Another Location

Airport or City:

Trip Planner

Search our weather history database for the weather conditions in past years. The results will help you decide how hot, cold, wet, or windy it might be!

Date:

Astronomy

Nov. 08, 2013 Rise Set
Actual Time 6:45 AM EST 5:03 PM EST
Civil Twilight 6:17 AM EST 5:31 PM EST
Nautical Twilight 5:45 AM EST 6:02 PM EST
Astronomical Twilight 5:14 AM EST 6:34 PM EST
Moon 11:39 AM EST (11/8) 10:21 PM EST (11/8)
Length of Visible Light 11h 13m
Length of Day
10h 18m
Waxing Crescent, 33% of the Moon is Illuminated
Nov 8
Waxing Crescent
Nov 10
First Quarter
Nov 17
Full
Nov 25
Last Quarter
Dec 2
New

Hourly Weather History & Observations

Time (EST) Temp. Windchill Dew Point Humidity Pressure Visibility Wind Dir Wind Speed Gust Speed Precip Events Conditions
12:15 AM 44.6 °F 40.7 °F 30.0 °F 57% 30.10 in 10.0 mi NW 6.9 mph 23.0 mph N/A   Scattered Clouds
12:35 AM 43.2 °F 39.7 °F 29.3 °F 58% 30.11 in 10.0 mi WNW 5.8 mph - N/A   Clear
12:55 AM 39.7 °F 36.5 °F 29.7 °F 67% 30.11 in 10.0 mi NW 4.6 mph - N/A   Clear
1:15 AM 39.4 °F 34.5 °F 29.8 °F 69% 30.11 in 10.0 mi WNW 6.9 mph - N/A   Clear
1:35 AM 36.1 °F - 30.6 °F 80% 30.11 in 10.0 mi Calm Calm - N/A   Clear
1:55 AM 33.8 °F - 30.2 °F 87% 30.11 in 10.0 mi Calm Calm - N/A   Clear
2:15 AM 36.1 °F 33.5 °F 30.6 °F 80% 30.11 in 10.0 mi WSW 3.5 mph - N/A   Clear
2:35 AM 36.5 °F 31.8 °F 30.2 °F 78% 30.11 in 10.0 mi West 5.8 mph - N/A   Clear
2:55 AM 36.5 °F - 29.8 °F 77% 30.11 in 10.0 mi Calm Calm - N/A   Clear
3:15 AM 35.2 °F - 29.8 °F 81% 30.11 in 10.0 mi Calm Calm - N/A   Clear
3:35 AM 33.1 °F 30.0 °F 30.0 °F 89% 30.11 in 10.0 mi SW 3.5 mph - N/A   Clear
3:55 AM 31.6 °F 28.3 °F 30.4 °F 95% 30.12 in 10.0 mi SSW 3.5 mph - N/A   Clear
4:15 AM 39.6 °F 36.3 °F 29.8 °F 68% 30.12 in 10.0 mi SW 4.6 mph - N/A   Clear
4:35 AM 38.1 °F - 29.3 °F 71% 30.12 in 10.0 mi Calm Calm - N/A   Clear
4:55 AM 34.5 °F - 29.8 °F 83% 30.12 in 10.0 mi Calm Calm - N/A   Clear
5:15 AM 37.2 °F - 30.2 °F 76% 30.13 in 10.0 mi Calm Calm - N/A   Clear
5:35 AM 38.5 °F - 30.0 °F 72% 30.13 in 10.0 mi Calm Calm - N/A   Clear
5:55 AM 34.5 °F - 29.3 °F 81% 30.13 in 10.0 mi Calm Calm - N/A   Clear
6:15 AM 32.2 °F 26.7 °F 29.5 °F 90% 30.14 in 10.0 mi SE 5.8 mph - N/A   Clear
6:35 AM 32.4 °F 29.1 °F 29.8 °F 90% 30.15 in 10.0 mi South 3.5 mph - N/A   Clear
6:55 AM 30.9 °F - 28.8 °F 92% 30.15 in 10.0 mi Calm Calm - N/A   Clear
7:15 AM 30.9 °F 27.5 °F 30.2 °F 97% 30.15 in 10.0 mi WSW 3.5 mph - N/A   Clear
7:35 AM 33.6 °F - 32.0 °F 94% 30.16 in 10.0 mi Calm Calm - N/A   Clear
7:55 AM 37.6 °F - 32.5 °F 82% 30.18 in 10.0 mi Calm Calm - N/A   Clear
8:15 AM 41.4 °F - 32.4 °F 70% 30.18 in 10.0 mi Calm Calm - N/A   Clear
8:35 AM 43.9 °F - 34.0 °F 68% 30.19 in 10.0 mi Calm Calm - N/A   Clear
8:55 AM 47.3 °F - 34.3 °F 61% 30.19 in 10.0 mi SW 3.5 mph - N/A   Clear
9:15 AM 50.4 °F - 34.5 °F 55% 30.20 in 10.0 mi WNW 11.5 mph - N/A   Scattered Clouds
9:35 AM 48.2 °F - 33.3 °F 56% 30.20 in 10.0 mi WNW 10.4 mph 16.1 mph N/A   Mostly Cloudy
9:55 AM 49.6 °F - 33.1 °F 53% 30.20 in 10.0 mi NW 11.5 mph 17.3 mph N/A   Scattered Clouds
10:15 AM 49.5 °F - 32.0 °F 51% 30.20 in 10.0 mi WNW 12.7 mph 23.0 mph N/A   Mostly Cloudy
10:35 AM 52.0 °F - 33.3 °F 49% 30.21 in 10.0 mi NNW 17.3 mph 21.9 mph N/A   Mostly Cloudy
10:55 AM 51.8 °F - 32.0 °F 47% 30.21 in 10.0 mi NW 18.4 mph 23.0 mph N/A   Scattered Clouds
11:15 AM 53.1 °F - 31.8 °F 44% 30.21 in 10.0 mi NW 15.0 mph 23.0 mph N/A   Scattered Clouds
11:35 AM 53.1 °F - 31.8 °F 44% 30.21 in 10.0 mi WNW 12.7 mph - N/A   Scattered Clouds
11:55 AM 52.7 °F - 32.0 °F 45% 30.21 in 10.0 mi NW 12.7 mph 24.2 mph N/A   Overcast
12:15 PM 53.8 °F - 30.9 °F 42% 30.20 in 10.0 mi NW 17.3 mph 24.2 mph N/A   Mostly Cloudy
12:35 PM 54.0 °F - 31.8 °F 43% 30.20 in 10.0 mi NNW 13.8 mph 21.9 mph N/A   Scattered Clouds
12:55 PM 54.9 °F - 32.4 °F 42% 30.20 in 10.0 mi NNW 19.6 mph - N/A   Scattered Clouds
1:15 PM 54.7 °F - 32.0 °F 42% 30.20 in 10.0 mi NNW 12.7 mph 20.7 mph N/A   Mostly Cloudy
1:35 PM 53.2 °F - 30.9 °F 43% 30.20 in 10.0 mi NNW 15.0 mph - N/A   Scattered Clouds
1:55 PM 53.6 °F - 31.8 °F 44% 30.20 in 10.0 mi NW 16.1 mph 20.7 mph N/A   Scattered Clouds
2:15 PM 54.1 °F - 31.6 °F 42% 30.20 in 10.0 mi NW 13.8 mph 20.7 mph N/A   Clear
2:35 PM 53.4 °F - 31.8 °F 44% 30.20 in 10.0 mi NW 13.8 mph 23.0 mph N/A   Clear
2:55 PM 52.9 °F - 31.1 °F 43% 30.20 in 10.0 mi NW 15.0 mph 20.7 mph N/A   Clear
3:15 PM 52.7 °F - 31.3 °F 44% 30.21 in 10.0 mi NW 8.1 mph 17.3 mph N/A   Clear
3:35 PM 52.2 °F - 30.7 °F 44% 30.22 in 10.0 mi NW 10.4 mph 18.4 mph N/A   Clear
3:55 PM 51.8 °F - 30.7 °F 45% 30.22 in 10.0 mi NW 9.2 mph - N/A   Clear
4:15 PM 50.9 °F - 29.5 °F 44% 30.23 in 10.0 mi NW 9.2 mph - N/A   Clear
4:35 PM 49.5 °F - 29.5 °F 46% 30.23 in 10.0 mi NW 10.4 mph - N/A   Clear
4:55 PM 47.7 °F - 29.5 °F 49% 30.24 in 10.0 mi NW 8.1 mph - N/A   Clear
5:15 PM 45.7 °F 42.0 °F 29.3 °F 53% 30.24 in 10.0 mi NW 6.9 mph - N/A   Clear
5:35 PM 41.2 °F - 29.5 °F 63% 30.25 in 10.0 mi Calm Calm - N/A   Clear
5:55 PM 38.5 °F 32.7 °F 29.3 °F 70% 30.25 in 10.0 mi NW 8.1 mph - N/A   Clear
6:15 PM 39.2 °F 35.9 °F 30.0 °F 70% 30.26 in 10.0 mi ESE 4.6 mph - N/A   Clear
6:35 PM 35.4 °F 32.6 °F 30.0 °F 81% 30.26 in 10.0 mi NW 3.5 mph - N/A   Clear
6:55 PM 36.7 °F - 29.8 °F 76% 30.28 in 10.0 mi Calm Calm - N/A   Clear
7:15 PM 32.5 °F - 29.5 °F 88% 30.28 in 10.0 mi Calm Calm - N/A   Clear
7:35 PM 32.4 °F - 30.0 °F 91% 30.29 in 10.0 mi Calm Calm - N/A   Clear
7:55 PM 30.6 °F - 29.8 °F 97% 30.29 in 10.0 mi Calm Calm - N/A   Clear
8:15 PM 30.9 °F - 30.0 °F 96% 30.29 in 10.0 mi Calm Calm - N/A   Clear
8:35 PM 31.8 °F - 30.2 °F 94% 30.30 in 10.0 mi Calm Calm - N/A   Clear
8:55 PM 30.0 °F - 29.8 °F 99% 30.30 in 10.0 mi Calm Calm - N/A   Clear
9:15 PM 30.6 °F - 29.3 °F 95% 30.31 in 10.0 mi Calm Calm - N/A   Clear
9:35 PM 29.3 °F - 29.1 °F 99% 30.31 in 10.0 mi Calm Calm - N/A   Clear
9:55 PM 28.9 °F - 28.9 °F 100% 30.31 in 10.0 mi Calm Calm - N/A   Clear
10:15 PM 29.1 °F - 29.1 °F 100% 30.31 in 10.0 mi Calm Calm - N/A   Clear
10:35 PM 28.9 °F - 28.9 °F 100% 30.31 in 10.0 mi Calm Calm - N/A   Clear
10:55 PM 27.9 °F - 27.9 °F 100% 30.31 in 10.0 mi Calm Calm - N/A   Clear
11:15 PM 27.0 °F - 27.0 °F 100% 30.31 in 10.0 mi Calm Calm - N/A   Clear
11:35 PM 26.4 °F - 26.4 °F 100% 30.31 in 10.0 mi Calm Calm - N/A   Clear
11:55 PM 25.7 °F - 25.7 °F 100% 30.32 in 10.0 mi Calm Calm - N/A   Clear